Sisseton, SD

10:04 PM CDT on April 26, 2017 (GMT -0500)
Sisseton

Weather History for K8D3 - November, 2013

Change the Weather History Date:

Thursday, November 21, 2013

  Actual Average Record
Temperature  
Mean Temperature 14 °F 28 °F  
Max Temperature 22 °F 37 °F 67 °F (2001)
Min Temperature 5 °F 18 °F -12 °F (1937)
Degree Days  
Heating Degree Days 51 37  
Month to date heating degree days 640 664  
Since 1 July heating degree days 1418 1491  
Cooling Degree Days 0 0  
Month to date cooling degree days 0 0  
Year to date cooling degree days 625 527  
Moisture  
Dew Point 8 °F    
Average Humidity 73    
Maximum Humidity 84    
Minimum Humidity 61    
Precipitation  
Precipitation 0.00 in 0.02 in 0.72 in (1953)
Month to date precipitation 0.07 0.50  
Year to date precipitation 27.43 21.86  
Snow  
Snow 0.00 in - - ()
Month to date snowfall 0.0  
Since 1 July snowfall 1.0  
Snow Depth 0.00 in    
Sea Level Pressure  
Sea Level Pressure 30.55 in    
Wind  
Wind Speed 19 mph (North)    
Max Wind Speed 29 mph    
Max Gust Speed 36 mph    
T = Trace of Precipitation, MM = Missing Value Source: NWS Daily Summary

Daily Weather History Graph

Daily Weather History Graph

Search for Another Location

Airport or City:

Trip Planner

Search our weather history database for the weather conditions in past years. The results will help you decide how hot, cold, wet, or windy it might be!

Date:

Astronomy

Nov. 21, 2013 Rise Set
Actual Time 7:36 AM CST 4:51 PM CST
Civil Twilight 7:03 AM CST 5:24 PM CST
Nautical Twilight 6:26 AM CST 6:00 PM CST
Astronomical Twilight 5:51 AM CST 6:36 PM CST
Moon 8:31 PM CST (11/21) 10:42 AM CST (11/21)
Length of Visible Light 10h 20m
Length of Day
9h 15m
Waning Gibbous, 85% of the Moon is Illuminated
Nov 21
Waning Gibbous
Nov 25
Last Quarter
Dec 2
New
Dec 9
First Quarter
Dec 17
Full

Hourly Weather History & Observations

Time (CST) Temp. Windchill Dew Point Humidity Pressure Visibility Wind Dir Wind Speed Gust Speed Precip Events Conditions
12:56 AM 21.0 °F 3.9 °F 15.1 °F 78% 30.22 in - North 25.3 mph 31.1 mph N/A   Unknown
1:56 AM 19.9 °F 2.2 °F 12.9 °F 74% 30.27 in - North 26.5 mph 35.7 mph N/A   Unknown
2:56 AM 19.0 °F 2.0 °F 12.0 °F 74% 30.32 in - North 23.0 mph 32.2 mph N/A   Unknown
3:56 AM 18.0 °F 0.6 °F 10.9 °F 74% 30.35 in - North 23.0 mph 32.2 mph N/A   Unknown
4:56 AM 17.1 °F -0.3 °F 12.0 °F 81% 30.38 in - North 21.9 mph - N/A   Unknown
5:56 AM 17.1 °F 0.6 °F 10.9 °F 77% 30.42 in - North 19.6 mph 31.1 mph N/A   Unknown
6:56 AM 17.1 °F -1.0 °F 10.0 °F 74% 30.44 in - North 24.2 mph 32.2 mph N/A   Unknown
7:56 AM 17.1 °F -0.6 °F 10.9 °F 77% 30.48 in - North 23.0 mph 31.1 mph N/A   Unknown
8:56 AM 16.0 °F -2.5 °F 9.0 °F 74% 30.52 in - North 24.2 mph - N/A   Unknown
9:56 AM 17.1 °F -0.3 °F 10.0 °F 74% 30.55 in - North 21.9 mph 27.6 mph N/A   Unknown
10:56 AM 18.0 °F 1.3 °F 9.0 °F 68% 30.56 in - North 20.7 mph 31.1 mph N/A   Unknown
11:56 AM 18.0 °F 0.2 °F 9.0 °F 68% 30.58 in - North 24.2 mph 31.1 mph N/A   Unknown
12:56 PM 18.0 °F 1.3 °F 8.1 °F 65% 30.58 in - North 20.7 mph 27.6 mph N/A   Unknown
1:56 PM 18.0 °F 1.3 °F 7.0 °F 62% 30.60 in - North 20.7 mph 29.9 mph N/A   Unknown
2:56 PM 17.1 °F 0.6 °F 7.0 °F 65% 30.61 in - North 19.6 mph - N/A   Unknown
3:56 PM 17.1 °F 1.0 °F 6.1 °F 62% 30.64 in - North 18.4 mph - N/A   Unknown
4:56 PM 16.0 °F 0.1 °F 6.1 °F 65% 30.67 in - North 17.3 mph - N/A   Unknown
5:56 PM 15.1 °F -1.1 °F 6.1 °F 68% 30.69 in - North 17.3 mph 23.0 mph N/A   Unknown
6:56 PM 14.0 °F -2.0 °F 6.1 °F 71% 30.70 in - North 16.1 mph - N/A   Unknown
7:56 PM 12.9 °F -3.9 °F 6.1 °F 74% 30.72 in - NNW 17.3 mph - N/A   Unknown
8:56 PM 10.9 °F -1.8 °F 3.9 °F 73% 30.73 in - NNW 9.2 mph - N/A   Unknown
9:56 PM 9.0 °F -4.2 °F 3.0 °F 77% 30.74 in - NNW 9.2 mph - N/A   Unknown
10:56 PM 7.0 °F -1.7 °F -0.0 °F 73% 30.72 in - NW 4.6 mph - N/A   Unknown
11:56 PM 5.0 °F - -0.9 °F 76% 30.71 in - Calm Calm - N/A   Unknown